Location: Bijele Vode
(45.2833°N, 16.2000°E)
Time: 11:08:59
(UTC+00:00)

CENTAUR R/B - Pass Details

Date: 22 January 2021
Orbit: 742 x 1446 km, 63.5° (Epoch: 02 March)

Event Time Altitude Azimuth Distance (km) Brightness Sun altitude
Rises 05:38:56 0° 209° (SSW) 3,353 5.2 -8.4°
Reaches altitude 10° 05:41:13 10° 207° (SSW) 2,493 4.6 -8.0°
Maximum altitude 05:46:58 74° 124° (SE) 1,004 2.8 -7.1°
Drops below altitude 10° 05:53:54 10° 41° (NE) 2,976 5.3 -5.9°
Sets 05:56:50 0° 40° (NE) 4,050 6.0 -5.5°
